FW7817 Weather Reports


Display with metric or nautical units.
time (UTC)temp
F
wind
direction
speed
MPH
gust
MPH
rain 1hr
in
rain 24hr
in
rain mn
in
humidity
%
barometer
mb
20260504224745 83 134 0.0 3.0 0.00 0.00 0.00 40 1002.5
20260504223733 84 185 0.0 5.0 0.00 0.00 0.00 41 1002.5
20260504223230 85 170 0.0 4.0 0.00 0.00 0.00 41 1002.4
20260504222228 85 180 1.0 2.0 0.00 0.00 0.00 40 1002.5
20260504221225 85 146 1.0 3.0 0.00 0.00 0.00 40 1002.5
20260504220726 85 170 2.0 7.0 0.00 0.00 0.00 42 1002.5
20260504220224 85 169 1.0 7.0 0.00 0.00 0.00 40 1002.5
20260504215724 86 219 0.0 3.0 0.00 0.00 0.00 43 1002.4
20260504215224 86 222 1.0 5.0 0.00 0.00 0.00 40 1002.5
20260504214222 86 152 1.0 5.0 0.00 0.00 0.00 40 1002.7
20260504213222 86 144 1.0 6.0 0.00 0.00 0.00 40 1002.8
20260504212221 86 231 0.0 2.0 0.00 0.00 0.00 42 1002.7
20260504211719 85 210 0.0 3.0 0.00 0.00 0.00 42 1002.8
20260504211219 85 207 1.0 6.0 0.00 0.00 0.00 40 1002.8
20260504210718 85 155 1.0 6.0 0.00 0.00 0.00 40 1003.0
20260504210218 85 165 1.0 3.0 0.00 0.00 0.00 40 1003.0
20260504205712 86 177 1.0 3.0 0.00 0.00 0.00 42 1003.0
20260504205206 85 233 0.0 3.0 0.00 0.00 0.00 41 1003.1
20260504203652 85 246 1.0 9.0 0.00 0.00 0.00 40 1003.2
20260504202657 86 163 2.0 8.0 0.00 0.00 0.00 40 1003.3
20260504202152 86 177 2.0 8.0 0.00 0.00 0.00 40 1003.3
20260504201652 86 155 1.0 5.0 0.00 0.00 0.00 41 1003.3
20260504201153 86 128 1.0 5.0 0.00 0.00 0.00 40 1003.3
20260504200153 86 190 2.0 6.0 0.00 0.00 0.00 39 1003.6
20260504195649 86 220 2.0 7.0 0.00 0.00 0.00 38 1003.6
20260504195149 86 149 1.0 7.0 0.00 0.00 0.00 39 1003.6
20260504194650 86 188 1.0 4.0 0.00 0.00 0.00 39 1003.6
20260504194149 87 184 1.0 4.0 0.00 0.00 0.00 38 1003.6
20260504192646 86 265 1.0 6.0 0.00 0.00 0.00 41 1003.6
20260504192147 86 242 2.0 7.0 0.00 0.00 0.00 42 1003.6
20260504191646 86 231 2.0 7.0 0.00 0.00 0.00 40 1003.7
20260504191146 86 155 2.0 6.0 0.00 0.00 0.00 41 1003.7
20260504190646 86 149 2.0 7.0 0.00 0.00 0.00 39 1003.7
20260504190147 86 161 2.0 8.0 0.00 0.00 0.00 40 1003.7
20260504184142 86 155 1.0 3.0 0.00 0.00 0.00 44 1003.8
20260504183643 86 152 2.0 5.0 0.00 0.00 0.00 43 1003.8
20260504183142 85 227 1.0 5.0 0.00 0.00 0.00 43 1003.9
20260504182641 86 202 1.0 4.0 0.00 0.00 0.00 44 1003.9
20260504182142 85 223 1.0 4.0 0.00 0.00 0.00 42 1003.8
20260504181639 85 213 2.0 5.0 0.00 0.00 0.00 41 1003.8
20260504180139 85 245 1.0 5.0 0.00 0.00 0.00 44 1003.9
20260504175640 85 213 1.0 6.0 0.00 0.00 0.00 42 1004.0
20260504175139 85 215 1.0 6.0 0.00 0.00 0.00 42 1004.0
20260504174137 84 245 2.0 6.0 0.00 0.00 0.00 43 1004.0
20260504172619 83 108 1.0 4.0 0.00 0.00 0.00 43 1004.2
20260504172113 83 264 2.0 5.0 0.00 0.00 0.00 48 1004.2
20260504171606 83 264 2.0 5.0 0.00 0.00 0.00 44 1004.2
20260504171101 83 194 2.0 5.0 0.00 0.00 0.00 45 1004.2
20260504170554 82 275 2.0 5.0 0.00 0.00 0.00 44 1004.3
20260504160444 78 27 2.0 6.0 0.00 0.00 0.00 50 1004.2
20260504150837 75 258 2.0 9.0 0.00 0.00 0.00 52 1004.4
20260504150332 75 279 2.0 11.0 0.00 0.00 0.00 53 1004.4
20260504141232 71 238 2.0 11.0 0.00 0.00 0.00 57 1004.6
20260504130624 61 200 1.0 3.0 0.00 0.00 0.00 73 1004.2
20260504130124 60 200 1.0 3.0 0.00 0.00 0.00 74 1004.1
20260504120104 55 227 0.0 0.0 0.00 0.00 0.00 80 1004.3
20260504110556 55 227 0.0 0.0 0.00 0.00 0.00 80 1004.6
20260504100552 56 227 0.0 0.0 0.00 0.00 0.00 74 1005.2
20260504081506 59 246 0.0 2.0 0.00 0.00 0.00 67 1005.6
20260504081000 59 246 0.0 2.0 0.00 0.00 0.00 67 1005.7
20260504080453 59 246 0.0 1.0 0.00 0.00 0.00 66 1005.5
20260504070342 59 128 0.0 2.0 0.00 0.00 0.00 67 1006.1
20260504050659 63 194 0.0 0.0 0.00 0.00 0.00 65 1007.7
20260504050156 64 194 1.0 3.0 0.00 0.00 0.00 64 1007.7
20260504045156 64 193 0.0 2.0 0.00 0.00 0.00 64 1007.8
20260504044655 64 162 0.0 2.0 0.00 0.00 0.00 63 1007.8
20260504044157 65 162 0.0 2.0 0.00 0.00 0.00 63 1007.8
20260504043659 65 162 0.0 2.0 0.00 0.00 0.00 62 1008.0
20260504043158 65 162 1.0 4.0 0.00 0.00 0.00 61 1008.0
20260504042155 66 309 0.0 1.0 0.00 0.00 0.00 61 1008.2
20260504041154 66 309 0.0 2.0 0.00 0.00 0.00 59 1008.3
20260504040655 66 308 1.0 3.0 0.00 0.00 0.00 60 1008.4
20260504040155 67 309 1.0 3.0 0.00 0.00 0.00 59 1008.3
20260504035154 67 91 0.0 2.0 0.00 0.00 0.00 56 1008.4
20260504034653 67 91 0.0 2.0 0.00 0.00 0.00 56 1008.5
20260504034147 67 91 0.0 2.0 0.00 0.00 0.00 56 1008.4
20260504033642 68 91 0.0 2.0 0.00 0.00 0.00 56 1008.4
20260504033135 68 91 0.0 0.0 0.00 0.00 0.00 55 1008.3
20260504031619 68 91 0.0 2.0 0.00 0.00 0.00 55 1008.3
20260504031112 69 91 0.0 2.0 0.00 0.00 0.00 54 1008.3
20260504030606 69 91 0.0 1.0 0.00 0.00 0.00 54 1008.3
20260504025554 69 91 0.0 1.0 0.00 0.00 0.00 54 1008.3
20260504025049 69 91 0.0 2.0 0.00 0.00 0.00 54 1008.2
20260504024542 69 91 0.0 2.0 0.00 0.00 0.00 54 1008.1
20260504024036 70 91 0.0 2.0 0.00 0.00 0.00 54 1008.2
20260504023531 70 91 0.0 2.0 0.00 0.00 0.00 53 1008.1
20260504023024 70 91 0.0 2.0 0.00 0.00 0.00 53 1008.2
20260504022519 70 91 0.0 3.0 0.00 0.00 0.00 52 1008.1
20260504022012 71 91 1.0 3.0 0.00 0.00 0.00 52 1008.2
20260504021000 71 22 0.0 1.0 0.00 0.00 0.00 50 1008.5
20260504020455 71 22 0.0 1.0 0.00 0.00 0.00 49 1008.3
20260504015948 72 22 0.0 1.0 0.00 0.00 0.00 49 1008.2
20260504014936 73 22 0.0 1.0 0.00 0.00 0.00 47 1008.1
20260504014430 73 22 0.0 1.0 0.00 0.00 0.00 47 1008.1
20260504013924 73 22 0.0 0.0 0.00 0.00 0.00 46 1008.2
20260504013417 74 22 0.0 0.0 0.00 0.00 0.00 46 1008.1
20260504012913 74 22 0.0 0.0 0.00 0.00 0.00 46 1008.3
20260504012405 74 22 0.0 1.0 0.00 0.00 0.00 45 1008.2
20260504011900 75 22 0.0 1.0 0.00 0.00 0.00 45 1008.2
20260504011353 75 22 0.0 1.0 0.00 0.00 0.00 45 1008.3
20260504010849 76 22 0.0 0.0 0.00 0.00 0.00 44 1008.3
20260504005836 76 22 0.0 0.0 0.00 0.00 0.00 43 1008.3
20260504005330 76 22 0.0 0.0 0.00 0.00 0.00 43 1008.2
20260504004318 77 22 0.0 1.0 0.00 0.00 0.00 42 1008.3
20260504003812 78 22 0.0 1.0 0.00 0.00 0.00 42 1008.3
20260504003306 78 22 0.0 1.0 0.00 0.00 0.00 42 1008.3
20260504002254 78 22 0.0 2.0 0.00 0.00 0.00 41 1008.3
20260504001748 79 22 0.0 1.0 0.00 0.00 0.00 40 1008.4
20260504001243 79 22 0.0 2.0 0.00 0.00 0.00 40 1008.5
20260504000230 80 22 0.0 2.0 0.00 0.00 0.00 39 1008.6
20260503235724 80 22 0.0 1.0 0.00 0.00 0.00 39 1008.6
20260503235218 80 22 0.0 1.0 0.00 0.00 0.00 39 1008.7
20260503234712 80 22 0.0 3.0 0.00 0.00 0.00 39 1008.8
20260503234207 81 22 0.0 3.0 0.00 0.00 0.00 37 1008.7
20260503233700 81 85 0.0 1.0 0.00 0.00 0.00 35 1008.7
20260503233155 82 85 0.0 1.0 0.00 0.00 0.00 36 1008.9
20260503232648 82 85 0.0 1.0 0.00 0.00 0.00 36 1009.0
20260503232143 82 85 0.0 1.0 0.00 0.00 0.00 35 1009.0
20260503231638 82 85 0.0 2.0 0.00 0.00 0.00 35 1009.0
20260503231129 83 85 1.0 2.0 0.00 0.00 0.00 34 1009.0
20260503230117 83 338 0.0 2.0 0.00 0.00 0.00 35 1009.1
20260503225106 83 338 0.0 2.0 0.00 0.00 0.00 32 1009.2